Location: Chassagnes
(44.4047°N, 4.1657°E)
Time: 13:07:05
(UTC+00:00)

Cosmos 1340 - Pass Details

Date: 27 October 2020
Orbit: 501 x 504 km, 81.2° (Epoch: 23 November)

Event Time Altitude Azimuth Distance (km) Brightness Sun altitude
Rises 17:59:21 0° 348° (NNW) 2,615 6.4 -14.8°
Reaches altitude 10° 18:01:29 10° 348° (NNW) 1,726 5.4 -15.2°
Maximum altitude 18:05:16 84° 263° (W) 514 2.6 -15.9°
Drops below altitude 10° 18:09:02 10° 173° (S) 1,712 5.3 -16.6°
Sets 18:11:09 0° 173° (S) 2,591 6.2 -17.0°
